Weather History for KSGJ - February, 2014

Change the Weather History Date:

Wednesday, February 5, 2014

  Actual Average Record
Temperature  
Mean Temperature 74 °F -  
Max Temperature 78 °F 62 °F 84 °F (1986)
Min Temperature 64 °F 45 °F 26 °F (2009)
Cooling Degree Days 8    
Growing Degree Days 24 (Base 50)    
Moisture  
Dew Point 68 °F    
Average Humidity 89    
Maximum Humidity 100    
Minimum Humidity 73    
Precipitation  
Precipitation 0.14 in - - ()
Sea Level Pressure  
Sea Level Pressure 30.02 in    
Wind  
Wind Speed 7 mph (SW)    
Max Wind Speed 17 mph    
Max Gust Speed 25 mph    
Visibility 9 miles    
Events Rain , Thunderstorm    
Averages and records for this station are not official NWS values.
T = Trace of Precipitation, MM = Missing Value Source: NWS Daily Summary

Daily Weather History Graph

Daily Weather History Graph

Search for Another Location

Airport or City:

Trip Planner

Search our weather history database for the weather conditions in past years. The results will help you decide how hot, cold, wet, or windy it might be!

Date:

Astronomy

Feb. 05, 2014 Rise Set
Actual Time 7:13 AM EST 6:06 PM EST
Civil Twilight 6:48 AM EST 6:30 PM EST
Nautical Twilight 6:19 AM EST 6:59 PM EST
Astronomical Twilight 5:51 AM EST 7:27 PM EST
Moon 10:57 AM EST (2/5) No Moon Set
Length of Visible Light 11h 42m
Length of Day
10h 53m
Waxing Crescent, 39% of the Moon is Illuminated
Feb 5
Waxing Crescent
Feb 6
First Quarter
Feb 14
Full
Feb 22
Last Quarter
Mar 1
New

Hourly Weather History & Observations

Time (EST) Temp. Dew Point Humidity Pressure Visibility Wind Dir Wind Speed Gust Speed Precip Events Conditions
12:58 AM 70.0 °F 68.0 °F 93% 30.06 in 10.0 mi SSW 4.6 mph - N/A   Mostly Cloudy
1:58 AM 70.0 °F 68.0 °F 93% 30.06 in 10.0 mi SSW 5.8 mph - N/A   Overcast
2:58 AM 70.0 °F 66.9 °F 90% 30.05 in 10.0 mi SSW 5.8 mph - N/A   Mostly Cloudy
3:58 AM 69.1 °F 66.9 °F 93% 30.04 in 10.0 mi South 6.9 mph - N/A   Overcast
4:58 AM 69.1 °F 66.9 °F 93% 30.04 in 10.0 mi SSW 5.8 mph - N/A   Overcast
5:58 AM 70.0 °F 66.9 °F 90% 30.05 in 10.0 mi South 4.6 mph - N/A   Overcast
6:58 AM 70.0 °F 68.0 °F 93% 30.05 in 10.0 mi SSW 6.9 mph - N/A   Partly Cloudy
7:58 AM 70.0 °F 68.0 °F 93% 30.04 in 10.0 mi SSW 11.5 mph - N/A   Clear
8:30 AM 71.6 °F 68.0 °F 88% 30.05 in 10.0 mi SSW 9.2 mph - N/A   Partly Cloudy
8:58 AM 72.0 °F 69.1 °F 91% 30.05 in 7.0 mi SSW 11.5 mph - N/A   Scattered Clouds
9:46 AM 75.2 °F 69.8 °F 83% 30.05 in 5.0 mi SW 13.8 mph 19.6 mph N/A   Haze
9:58 AM 75.0 °F 70.0 °F 84% 30.04 in 5.0 mi SSW 17.3 mph 21.9 mph N/A   Haze
10:58 AM 75.9 °F 70.0 °F 82% 30.04 in 5.0 mi SW 13.8 mph 25.3 mph N/A   Haze
11:39 AM 77.0 °F 69.8 °F 78% 30.03 in 5.0 mi WSW 10.4 mph 19.6 mph N/A   Haze
11:58 AM 78.1 °F 69.1 °F 74% 30.03 in 5.0 mi SW 15.0 mph 25.3 mph N/A   Haze
12:58 PM 78.1 °F 69.1 °F 74% 30.00 in 5.0 mi WSW 8.1 mph - N/A   Haze
1:58 PM 77.0 °F 69.1 °F 76% 29.98 in 7.0 mi WSW 4.6 mph - 0.00 in Rain , Thunderstorm Light Rain
2:21 PM 69.8 °F 66.2 °F 88% 29.98 in 2.0 mi West 6.9 mph 17.3 mph 0.11 in Rain , Thunderstorm Heavy Thunderstorms and Rain
2:54 PM 71.6 °F 68.0 °F 88% 30.00 in 10.0 mi SSW 8.1 mph - 0.14 in Thunderstorm Thunderstorm
2:58 PM 71.1 °F 68.0 °F 90% 30.00 in 10.0 mi South 8.1 mph - 0.14 in Thunderstorm Thunderstorm
3:06 PM 69.8 °F 69.8 °F 100% 29.99 in 10.0 mi SSW 5.8 mph - N/A   Overcast
3:18 PM 71.6 °F 69.8 °F 94% 29.99 in 10.0 mi SSW 4.6 mph - N/A   Overcast
3:23 PM 71.6 °F 69.8 °F 94% 29.99 in 10.0 mi Variable 4.6 mph - N/A   Overcast
3:35 PM 73.4 °F 69.8 °F 88% 29.98 in 10.0 mi WSW 4.6 mph - N/A   Overcast
3:58 PM 73.0 °F 69.1 °F 87% 29.98 in 10.0 mi WSW 3.5 mph - N/A   Mostly Cloudy
4:58 PM 73.0 °F 70.0 °F 90% 29.98 in 10.0 mi South 3.5 mph - N/A   Mostly Cloudy
5:02 PM 73.4 °F 69.8 °F 88% 29.98 in 10.0 mi SSW 3.5 mph - N/A   Scattered Clouds
5:58 PM 73.0 °F 70.0 °F 90% 29.99 in 10.0 mi WSW 4.6 mph - N/A   Clear
6:58 PM 71.1 °F 69.1 °F 93% 29.99 in 10.0 mi SW 4.6 mph - N/A   Partly Cloudy
7:58 PM 71.1 °F 68.0 °F 90% 30.01 in 10.0 mi WSW 5.8 mph - N/A   Partly Cloudy
8:58 PM 70.0 °F 68.0 °F 93% 30.03 in 10.0 mi SW 3.5 mph - N/A   Scattered Clouds
9:58 PM 69.1 °F 68.0 °F 96% 30.05 in 10.0 mi West 4.6 mph - N/A   Clear
10:34 PM 69.8 °F 68.0 °F 94% 30.06 in 10.0 mi West 3.5 mph - N/A   Mostly Cloudy
10:45 PM 69.8 °F 68.0 °F 94% 30.06 in 10.0 mi West 4.6 mph - N/A   Mostly Cloudy
10:58 PM 69.1 °F 68.0 °F 96% 30.06 in 10.0 mi WNW 8.1 mph - N/A   Overcast
11:58 PM 64.0 °F 55.0 °F 73% 30.07 in 10.0 mi NW 8.1 mph - N/A   Scattered Clouds